Location: Hokitika
(42.7170°S, 170.9670°E)
Time: 04:38:16
(UTC+13:00)

Cosmos 2263 Rocket - Pass Details

Date: 24 January 2019
Orbit: 823 x 848 km, 71.0° (Epoch: 17 February)

Event Time Altitude Azimuth Distance (km) Brightness Sun altitude
Rises 21:35:17 0° 200° (SSW) 3,412 6.3 -5.1°
Reaches altitude 10° 21:37:52 10° 193° (SSW) 2,475 5.4 -5.5°
Maximum altitude 21:43:17 43° 121° (ESE) 1,168 2.8 -6.3°
Drops below altitude 10° 21:48:40 10° 50° (NE) 2,465 3.9 -7.2°
Enters shadow 21:49:02 - 48° (NE) 2,599 4.1 -7.2°
